Тулуза

Франция     47˚37′01″N   1˚22′01″W
темп.,
°C
ветер,
м/с
пор.,
м/с
влажн.,
%
обл.,
%
осадки,
мм/ч
давл.,
гПа
погр.,
м
5 декабря, сб
сб501:00+1˚ююз348963 0.1 99071
04:00+1˚ю47890 0.0 989143
07:00+2˚ю4108914 0.0 989167
10:00+5˚ю61186100 0.9 989462
13:00+8˚з697683 3.0 9881013
16:00+8˚з6117655 0.7 988815
19:00+5˚зюз5128454 0.9 989357
22:00+4˚ююз368924 0.0 990115
6 декабря, вс
вс601:00+4˚сз239239 0.0 99241
04:00+4˚сз489299 0.0 993376
07:00+5˚сз7159390 1.1 996841
10:00+6˚сз61384100 0.6 9981188
13:00+7˚сз5886100 1.0 999652
16:00+7˚ссз6108597 0.3 1000609
19:00+4˚зсз5129282 0.3 1002382
22:00+3˚сз511902 0.0 1004339
7 декабря, пн
пн701:00+2˚зсз369320 0.0 1003140
04:00+2˚зсз23920 0.0 100347
07:00+1˚зюз119229 0.0 100222
10:00+3˚ююз2489100 0.0 1001103
13:00+6˚ююв2376100 0.0 1000272
16:00+6˚вюв2480100 0.0 998223
19:00+5˚вюв2588100 0.1 998193
22:00+4˚всв3495100 0.0 99892
8 декабря, вт
вт801:00+2˚ссв3694100 0.0 999148
04:00+2˚ссв3594100 0.0 1000136
07:00+1˚ссв239487 0.0 100286
10:00+2˚с229160 0.0 100581
13:00+6˚ссз347430 0.0 1006577
16:00+6˚сз257772 0.0 1007321
19:00+3˚зсз239286 0.0 100926
22:00+3˚сз239279 0.0 101028
9 декабря, ср
ср901:00+2˚з349088 0.0 101179
04:00+2˚з3493100 0.0 101199
07:00+2˚зсз259499 0.2 1011158
10:00+4˚з3589100 0.4 1011217
13:00+7˚зюз3578100 0.4 1010322
16:00+7˚зюз357596 0.1 1009312
19:00+3˚зюз238773 0.1 100832
22:00+2˚ю228517 0.0 100822